Regional Weather Roundup
Issued by NWS Sterling, VA

Home | Current Version | Previous Version | Graphics & Text | Print | Product List | Glossary On
Versions: 1 2 3 4 5 6 7 8 9 10 11 12 13 14 15 16 17 18 19 20 21 22 23 24 25 26 27 28 29 30 31 32 33 34 35 36 37 38 39 40 41 42 43 44 45 46 47 48 49 50
000
ASUS41 KLWX 051910
RWRLWX

REGIONAL WEATHER ROUNDUP
NATIONAL WEATHER SERVICE BALTIMORE MD/WASHINGTON DC
300 PM EDT SUN JUL 05 2015

Note: "FAIR" indicates few or no clouds below 12,000 feet
with no significant weather and/or obstructions to visibility.
 TC=TEMPERATURE CELSIUS

 * =Non NWS site. Station does not report precipitation (e.g. rain,
    snow, etc.), thunder, or fog.

DCZ001-MDZ009-015-VAZ040>042-051-053>054-052000-
WASHINGTON METRO

CITY           SKY/WX    TMP DP  RH WIND       PRES   REMARKS
WASHINGTON NAT PTSUNNY   85  67  54 CALM      30.13F
DULLES         PTSUNNY   80  69  69 VRB3      30.13F
ANDREWS AFB    MOSUNNY   81  77  89 VRB6      30.12F
FT BELVOIR     MOSUNNY   83  70  65 SE7       30.12F
QUANTICO       MOSUNNY   81  69  67 CALM      30.13F
COLLEGE PARK*  MOSUNNY   82  68  61 CALM      30.12F
LEESBURG*      MOSUNNY   82  72  69 S8        30.14F
MANASSAS*      PTSUNNY  N/A N/A N/A CALM      30.13F
GAITHERSBURG*  MOSUNNY   81  68  65 S3        30.17F

$$

MDZ006>007-011-014-052000-
BALTIMORE METRO

CITY           SKY/WX    TMP DP  RH WIND       PRES   REMARKS
BWI AIRPORT    PTSUNNY   80  67  64 SE3       30.12F
MD SCIENCE CTR   N/A     80  65  59 MISG      30.13F
MARTIN STATE   PTSUNNY   81  72  74 SE6       30.15F
ANNAPOLIS      SUNNY     78  67  68 SE8       30.13F
FORT MEADE*    SUNNY     79  66  65 SE6       30.15F

$$

MDZ012-015-019>023-052000-
MARYLAND EASTERN SHORE

CITY           SKY/WX    TMP DP  RH WIND       PRES   REMARKS
OCEAN CITY     MOSUNNY   77  68  73 SE8       30.14S
SALISBURY      PTSUNNY   82  70  66 S6        30.12F
BAY BRIDGE AP*   N/A     77  68  73 W6        30.14F
CAMBRIDGE*     MOSUNNY   81  68  65 CALM      30.12F
EASTON*        PTSUNNY   84  70  61 CALM      30.16F

$$

MDZ017>025-052000-
SOUTHERN MARYLAND

CITY           SKY/WX    TMP DP  RH WIND       PRES   REMARKS
PATUXENT RIVER PTSUNNY   80  68  66 SE7       30.13F
ST INIGOES     NOT AVBL
LEONARDTOWN*   MOSUNNY   79  68  69 E5        30.14F

$$

MDZ003>005-052000-
NORTH CENTRAL MARYLAND

CITY           SKY/WX    TMP DP  RH WIND       PRES   REMARKS
FREDERICK*     PTSUNNY   82  72  69 CALM      30.16F
HAGERSTOWN APT MOSUNNY   82  61  48 SE6       30.13F
WESTMINSTER*   MOSUNNY   81  70  69 N3        30.15F

$$

MDZ501>502-052000-
WESTERN MARYLAND

CITY           SKY/WX    TMP DP  RH WIND       PRES   REMARKS
OAKLAND*       PTSUNNY   72 N/A N/A E8        30.20F
CUMBERLAND*    MOSUNNY   82  63  51 E5        30.16F

$$

VAZ025>031-052000-
SHENANDOAH VALLEY

CITY           SKY/WX    TMP DP  RH WIND       PRES   REMARKS
WINCHESTER*    MOSUNNY   82  68  61 SE10      30.14F
FRONT ROYAL*   CLOUDY    77  70  78 E5        30.12F
LURAY*         CLOUDY    81  68  65 CALM      30.13F
NEW MARKET*    CLOUDY    74  71  89 N3        30.11F
STAUNTON*      CLOUDY    80  68  65 SE6       30.16F
WAYNESBORO*    CLOUDY    74  67  79 SE7       30.16F

$$

WVZ021-048>050-054>055-052000-
EASTERN WEST VIRGINIA PANHANDLE

CITY           SKY/WX    TMP DP  RH WIND       PRES   REMARKS
MARTINSBURG    MOSUNNY   82  64  54 E5        30.14F
PETERSBURG*    CLOUDY    81  64  56 S5        30.13S

$$

VAZ036>039-050-052000-
CENTRAL FOOTHILLS

CITY           SKY/WX    TMP DP  RH WIND       PRES   REMARKS
CHARLOTTESVILL CLOUDY    78  69  73 E8        30.13F
CULPEPER*      CLOUDY    78  70  76 CALM      30.14F
ORANGE*        PTSUNNY   79  70  73 SE3       30.15F
GORDONSVILLE*  MOCLDY    79  70  73 NE5       30.13F
WARRENTON*     PTSUNNY   82  73  75 W5        30.13F

$$

VAZ055>057-052000-
NORTH AND CENTRAL PIEDMONT

CITY           SKY/WX    TMP DP  RH WIND       PRES   REMARKS
FREDERICKSBRG* PTSUNNY   83  70  64 SE5       30.11F
STAFFORD*      PTSUNNY   80  70  70 E6        30.16F

$$

NCZ024-NYZ072-PAZ021-071-VAZ022-071-052000-
OTHER REGIONAL OBSERVATIONS

CITY           SKY/WX    TMP DP  RH WIND       PRES   REMARKS
NEW YORK CITY  SUNNY     83  62  49 CALM      30.13F
PHILADELPHIA   MOSUNNY   83  62  49 VRB6      30.12F
PITTSBURGH     PTSUNNY   80  57  45 E6        30.12F
ROANOKE        PTSUNNY   78  69  73 SE10      30.13F
RICHMOND       CLOUDY    83  71  67 SE5       30.11F
RALEIGH        PTSUNNY   82  73  74 E5        30.09F

$$

ANZ530>537-052000-
MARINE OBSERVATIONS

STATION/POSITION TIME  TEMP    WIND        PRES
                       AIR SEA DIR/SP/G
                 (UTC) (F)     (DEG/KT/KT) (MB)
THOMAS PT LIGHT  1900          250/  3       N/A
BALT KEY BRIDGE  1800   74     120/  5/  6 1020.8F
COVE POINT       1800   76     200/  4/  5 1021.4F
LEWISETTA        1800   77 80   90/  7/  9 1020.3F
SOLOMONS ISLAND  1800      81                N/A
PINEY POINT      1800          170/  5/  6   N/A

$$



USA.gov is the U.S. government's official web portal to all federal, state and local government web resources and services.